Torna al catalogo

ORBCOMM FM 30

AttivoComunicazioniLEO
NORAD 25980·PAYLOAD·🇺🇸 United States

Lanciato Dec 4, 1999 da Cape Canaveral Space Force Station

Loading…

Prossimi Passaggi (prossime 24 ore)

TLE

AggiornatoSource: Space-Track

Epoca: Sep 14, 2026, 13:13 UTC

1 25980U 99065A   26257.55115454  .00000479  00000-0  20261-3 0  9999
2 25980  45.0305  97.1857 0006868 121.2186 238.9336 14.38265968399848

Traccia ORBCOMM FM 30 in tempo reale con AllMySat

Download on the App Store